Location: Ariel
(45.9570°N, 122.5700°W)
Time: 20:15:57
(UTC-07:00)

Altair - Pass Details

Date: 27 July 2019
Orbit: 1501 x 1683 km, 47.2° (Epoch: 20 August)

Event Time Altitude Azimuth Distance (km) Brightness Sun altitude
Rises 14:57:59 0° 279° (W) 4,640 10.3 56.0°
Reaches altitude 10° 15:01:00 10° 280° (W) 3,654 9.9 55.6°
Maximum altitude 15:10:12 87° 11° (N) 1,515 8.5 54.4°
Drops below altitude 10° 15:19:34 10° 101° (E) 3,708 9.4 53.2°
Sets 15:22:38 0° 102° (ESE) 4,711 9.8 52.7°
